When you browse on this site, cookies collect data to enhance your experience and personalize the content and advertising you see.
Visit our Privacy Policy to learn more. By continuing to use the site, you agree to this use of cookies and data.
  • în România
  • Lista ţărilor
  • Pe 7 zile
  • Temperatura apei
  • Meteo pe hartă
  • Widget-uri
  • user-avatar
    Intrare

    Meteo pe oră la Jazd

    Astăzi, 18 Februarie, Marţi

    Timp Temperatura Precipitaţii Vânt Presiune Umiditate
    00:00 +5°C° 0 mm 1 m/s 561 mmHg 60%
    01:00 +5°C° 0 mm 1 m/s 561 mmHg 58%
    02:00 +4°C° 0 mm 1 m/s 560 mmHg 58%
    03:00 +4°C° 0 mm 1 m/s 560 mmHg 58%
    04:00 +4°C° 0 mm 1 m/s 560 mmHg 59%
    05:00 +3°C° 0 mm 1 m/s 561 mmHg 57%
    06:00 +3°C° 0 mm 1 m/s 561 mmHg 56%
    07:00 +3°C° 0 mm 1 m/s 561 mmHg 54%
    08:00 +3°C° 0 mm 1 m/s 562 mmHg 50%
    09:00 +4°C° 0 mm 1 m/s 562 mmHg 46%
    10:00 +4°C° 0 mm 2 m/s 563 mmHg 42%
    11:00 +5°C° 0 mm 2 m/s 563 mmHg 40%
    12:00 +6°C° 0 mm 2 m/s 563 mmHg 38%
    13:00 +7°C° 0 mm 2 m/s 563 mmHg 37%
    14:00 +7°C° 0 mm 2 m/s 563 mmHg 37%
    15:00 +7°C° 0 mm 2 m/s 563 mmHg 37%
    16:00 +7°C° 0 mm 2 m/s 562 mmHg 37%
    17:00 +6°C° 0 mm 2 m/s 562 mmHg 39%
    18:00 +5°C° 0 mm 2 m/s 562 mmHg 42%
    19:00 +6°C° 0 mm 1 m/s 562 mmHg 44%
    20:00 +5°C° 0 mm 1 m/s 562 mmHg 46%
    21:00 +5°C° 0 mm 1 m/s 562 mmHg 47%
    22:00 +4°C° 0 mm 1 m/s 562 mmHg 49%
    23:00 +4°C° 0 mm 1 m/s 562 mmHg 51%

    Mâine, 19 Februarie, Miercuri

    Timp Temperatura Precipitaţii Vânt Presiune Umiditate
    00:00 +4°C° 0 mm 1 m/s 561 mmHg 53%
    01:00 +2°C° 0 mm 0 m/s 561 mmHg 55%
    02:00 +2°C° 0 mm 0 m/s 561 mmHg 56%
    03:00 +2°C° 0 mm 0 m/s 560 mmHg 58%
    04:00 +1°C° 0 mm 0 m/s 560 mmHg 59%
    05:00 +1°C° 0 mm 0 m/s 560 mmHg 60%
    06:00 +1°C° 0 mm 0 m/s 560 mmHg 60%
    07:00 +1°C° 0 mm 0 m/s 560 mmHg 61%
    08:00 +3°C° 0 mm 1 m/s 560 mmHg 55%
    09:00 +5°C° 0 mm 1 m/s 561 mmHg 50%
    10:00 +6°C° 0 mm 1 m/s 562 mmHg 45%
    11:00 +8°C° 0 mm 1 m/s 562 mmHg 43%
    12:00 +9°C° 0 mm 1 m/s 562 mmHg 40%
    13:00 +9°C° 0 mm 2 m/s 562 mmHg 38%
    14:00 +9°C° 0 mm 2 m/s 562 mmHg 37%
    15:00 +11°C° 0 mm 1 m/s 561 mmHg 36%
    16:00 +11°C° 0 mm 1 m/s 561 mmHg 35%
    17:00 +11°C° 0 mm 1 m/s 561 mmHg 38%
    18:00 +10°C° 0 mm 1 m/s 560 mmHg 41%
    19:00 +9°C° 0 mm 1 m/s 560 mmHg 45%
    20:00 +9°C° 0 mm 1 m/s 560 mmHg 46%
    21:00 +8°C° 0 mm 1 m/s 559 mmHg 47%
    22:00 +8°C° 0 mm 1 m/s 559 mmHg 48%
    23:00 +6°C° 0 mm 2 m/s 559 mmHg 49%

    Poimâine, 20 Februarie, Joi

    Timp Temperatura Precipitaţii Vânt Presiune Umiditate
    00:00 +6°C° 0 mm 2 m/s 558 mmHg 49%
    01:00 +6°C° 0 mm 2 m/s 558 mmHg 49%
    02:00 +6°C° 0 mm 2 m/s 558 mmHg 48%
    03:00 +5°C° 0 mm 3 m/s 558 mmHg 48%
    04:00 +5°C° 0 mm 3 m/s 557 mmHg 48%
    05:00 +5°C° 0.3 mm 3 m/s 557 mmHg 55%
    06:00 +4°C° 0.3 mm 4 m/s 557 mmHg 63%
    07:00 +4°C° 0.3 mm 4 m/s 557 mmHg 70%
    08:00 +5°C° 0.4 mm 5 m/s 557 mmHg 67%
    09:00 +5°C° 0.4 mm 6 m/s 558 mmHg 64%
    10:00 +6°C° 0.4 mm 7 m/s 558 mmHg 61%
    11:00 +6°C° 0 mm 8 m/s 558 mmHg 56%
    12:00 +7°C° 0 mm 9 m/s 558 mmHg 52%
    13:00 +8°C° 0 mm 10 m/s 557 mmHg 47%
    14:00 +8°C° 0.3 mm 11 m/s 557 mmHg 49%
    15:00 +8°C° 0.3 mm 12 m/s 556 mmHg 51%
    16:00 +6°C° 0.3 mm 14 m/s 555 mmHg 53%
    17:00 +5°C° 0.1 mm 13 m/s 555 mmHg 54%
    18:00 +5°C° 0.1 mm 12 m/s 555 mmHg 55%
    19:00 +4°C° 0.1 mm 11 m/s 554 mmHg 56%
    20:00 +3°C° 0.1 mm 11 m/s 554 mmHg 60%
    21:00 +2°C° 0.1 mm 11 m/s 554 mmHg 65%
    22:00 +1°C° 0.1 mm 11 m/s 553 mmHg 69%
    23:00 0°C° 0.1 mm 9 m/s 553 mmHg 68%

    21 Februarie, Vineri

    Timp Temperatura Precipitaţii Vânt Presiune Umiditate
    00:00 0°C° 0.1 mm 8 m/s 553 mmHg 68%
    01:00 0°C° 0.1 mm 7 m/s 553 mmHg 67%
    02:00 +1°C° 0 mm 6 m/s 553 mmHg 65%
    03:00 0°C° 0 mm 5 m/s 553 mmHg 64%
    04:00 0°C° 0 mm 3 m/s 553 mmHg 63%
    05:00 0°C° 0 mm 3 m/s 553 mmHg 59%
    06:00 +1°C° 0 mm 2 m/s 553 mmHg 56%
    07:00 -1°C° 0 mm 2 m/s 554 mmHg 53%
    08:00 +2°C° 0 mm 2 m/s 555 mmHg 46%
    09:00 +3°C° 0 mm 2 m/s 556 mmHg 39%
    10:00 +5°C° 0 mm 2 m/s 558 mmHg 32%
    17:00 +9°C° 0 mm 1 m/s 558 mmHg 25%
    18:00 +8°C° 0 mm 1 m/s 558 mmHg 29%
    19:00 +7°C° 0 mm 1 m/s 558 mmHg 33%
    20:00 +7°C° 0 mm 1 m/s 558 mmHg 34%
    21:00 +7°C° 0 mm 1 m/s 558 mmHg 35%
    22:00 +6°C° 0 mm 1 m/s 558 mmHg 35%
    23:00 +6°C° 0 mm 1 m/s 558 mmHg 39%

    22 Februarie, Sâmbătă

    Timp Temperatura Precipitaţii Vânt Presiune Umiditate
    00:00 +5°C° 0 mm 1 m/s 557 mmHg 42%
    01:00 +5°C° 0 mm 1 m/s 557 mmHg 45%
    02:00 +4°C° 0 mm 1 m/s 557 mmHg 47%
    03:00 +3°C° 0 mm 1 m/s 556 mmHg 50%
    04:00 +3°C° 0 mm 1 m/s 556 mmHg 52%
    05:00 +2°C° 0 mm 1 m/s 556 mmHg 54%
    06:00 +2°C° 0 mm 1 m/s 556 mmHg 55%
    07:00 +2°C° 0 mm 1 m/s 556 mmHg 56%
    08:00 +2°C° 0 mm 2 m/s 557 mmHg 52%
    09:00 +4°C° 0 mm 2 m/s 558 mmHg 47%
    10:00 +4°C° 0 mm 3 m/s 559 mmHg 42%
    11:00 +5°C° 0 mm 3 m/s 559 mmHg 37%
    12:00 +7°C° 0 mm 3 m/s 559 mmHg 32%
    13:00 +9°C° 0 mm 3 m/s 559 mmHg 26%
    14:00 +9°C° 0 mm 3 m/s 559 mmHg 25%
    15:00 +9°C° 0 mm 3 m/s 559 mmHg 23%
    16:00 +10°C° 0 mm 3 m/s 559 mmHg 21%
    17:00 +9°C° 0 mm 2 m/s 559 mmHg 26%
    18:00 +8°C° 0 mm 2 m/s 558 mmHg 31%
    19:00 +7°C° 0 mm 2 m/s 558 mmHg 35%
    20:00 +6°C° 0 mm 2 m/s 558 mmHg 38%
    21:00 +6°C° 0 mm 2 m/s 558 mmHg 41%
    22:00 +5°C° 0 mm 2 m/s 558 mmHg 44%
    23:00 +4°C° 0 mm 2 m/s 557 mmHg 44%

    23 Februarie, Duminică

    Timp Temperatura Precipitaţii Vânt Presiune Umiditate
    00:00 +4°C° 0 mm 2 m/s 557 mmHg 44%
    01:00 +4°C° 0 mm 2 m/s 557 mmHg 44%
    02:00 +3°C° 0 mm 2 m/s 557 mmHg 47%
    03:00 +3°C° 0 mm 2 m/s 556 mmHg 49%
    04:00 +2°C° 0 mm 2 m/s 556 mmHg 51%
    05:00 +2°C° 0 mm 2 m/s 556 mmHg 51%
    06:00 +2°C° 0 mm 2 m/s 556 mmHg 51%
    07:00 +1°C° 0 mm 2 m/s 556 mmHg 51%
    08:00 +3°C° 0 mm 2 m/s 558 mmHg 45%
    09:00 +5°C° 0 mm 2 m/s 559 mmHg 39%
    10:00 +7°C° 0 mm 2 m/s 560 mmHg 32%
    11:00 +8°C° 0 mm 2 m/s 560 mmHg 31%
    12:00 +8°C° 0 mm 2 m/s 560 mmHg 29%
    13:00 +9°C° 0 mm 3 m/s 560 mmHg 27%
    14:00 +9°C° 0 mm 3 m/s 560 mmHg 28%
    15:00 +9°C° 0 mm 3 m/s 560 mmHg 28%
    16:00 +10°C° 0 mm 3 m/s 559 mmHg 29%
    17:00 +9°C° 0 mm 3 m/s 559 mmHg 33%
    18:00 +8°C° 0 mm 3 m/s 559 mmHg 37%
    19:00 +8°C° 0 mm 3 m/s 559 mmHg 41%
    20:00 +7°C° 0 mm 3 m/s 559 mmHg 44%
    21:00 +7°C° 0 mm 3 m/s 559 mmHg 47%
    22:00 +5°C° 0 mm 3 m/s 559 mmHg 50%
    23:00 +5°C° 0 mm 3 m/s 559 mmHg 52%
    Arată mai mult